Regional Weather Roundup
Issued by NWS Midland/Odessa, TX

Skip options and go directly to product.
Home | Oldest Version | Previous Version | Current Version | All | Text Only | Save Text | Print | Product List | Glossary On

Skip product version selection by date and time.   
030
ASUS44 KMAF 310610
RWRMAF
MIDLAND AREA WEATHER ROUNDUP
NATIONAL WEATHER SERVICE MIDLAND TX
100 AM CDT SUN AUG 31 2014

...IN SOUTHWEST TEXAS AND SOUTHEAST NEW MEXICO...

CITY           SKY/WX    TMP DP  RH WIND       PRES   REMARKS
ALPINE         FAIR      77  56  49 SE13      30.15S
ANDREWS        FAIR      78  62  57 S9        30.01F
ARTESIA        NOT AVBL
BIG SPRING     FAIR      79  64  59 SE9       30.01F
CARLSBAD       CLEAR     78  44  29 S10       29.97S
DRYDEN           N/A     84  64  50 E6        29.95F
FORT STOCKTON  FAIR      79  63  57 S14G23    29.99F
GUAD PASS      CLEAR     73  39  29 NE17      30.15F
HOBBS          FAIR      75  52  43 SE8       30.03F
MARFA          MOCLDY    72  55  56 E6        30.14S VSB<1/4
MIDLAND AIRPK  NOT AVBL
MIDLAND INTL   FAIR      80  63  55 SE12      30.00S
ODESSA         FAIR      81  61  50 S17G23    30.01S
PECOS          FAIR      81  61  50 E10       29.96S
PRESIDIO       FAIR      88  56  33 E9        29.95S
SEMINOLE       FAIR      76  53  44 SE8       30.03S
SNYDER         FAIR      78  64  63 SE10      29.98F
WINK           FAIR      83  62  49 SE16      29.97S
$$
...OTHER STATIONS IN TEXAS...

CITY           SKY/WX    TMP DP  RH WIND       PRES   REMARKS
ABILENE        FAIR      80  66  62 S10       29.97S
AMARILLO       FAIR      77  54  44 S21       30.00S
AUSTIN         FAIR      78  73  84 S9        29.96S
BROWNSVILLE    FAIR      81  79  94 SE7       29.93F
CORPUS CHRISTI MOCLDY    78  76  93 SE5       29.95R
DALLAS FTW     FAIR      82  68  62 S9        29.92F
DEL RIO        FAIR      88  67  49 SE14      29.91R
EL PASO        CLEAR     78  49  35 SE5       29.99S
HOUSTON INT    MOCLDY    79  73  83 S3        29.97F
LUBBOCK        FAIR      74  54  49 SE12      30.01S
SAN ANGELO     FAIR      76  65  68 SE3       29.97S
SAN ANTONIO    FAIR      80  72  76 S14       29.97F
WACO           FAIR      81  71  71 S12       29.94S
WICHITA FALLS  NOT AVBL
$$
...OTHER LOCATIONS IN NEW MEXICO...

CITY           SKY/WX    TMP DP  RH WIND       PRES   REMARKS
ALAMAGORDO     CLEAR     75  41  29 SE9       30.01F
ALBUQUERQUE    PTCLDY    77  40  26 S15       30.05R
CANNON AFB     CLEAR     72  49  43 S10       30.04S
CLOVIS           N/A     73  46  38 S13       30.06S
HOLLOMAN AFB   CLEAR     76  44  32 S7        29.99S
ROSWELL        CLEAR     74  42  31 S10       29.98F
RUIDOSO        CLEAR     64  39  39 SW13      30.22F
SANTA FE       PTCLDY    66  42  41 E6        30.12S
TRUTH OR CONSE CLEAR     74  44  34 W6        30.04R
TUCUMCARI      CLEAR     79  47  32 S23G32    29.96S
$$

USA.gov is the U.S. government's official web portal to all federal, state and local government web resources and services.